NF3Q Weather Reports


time (UTC)temp
F
wind
direction
speed
knots
gust
knots
rain 1hr
in
rain 24hr
in
rain mn
in
humidity
%
barometer
mb
20260509222507 70 215 0.9 5.2 0.00 0.18 0.15 51 1006.7
20260509222008 70 239 0.0 2.6 0.00 0.18 0.15 52 1006.8
20260509221523 70 319 0.0 2.6 0.00 0.18 0.15 52 1006.8
20260509221008 69 273 0.0 2.6 0.00 0.18 0.15 54 1006.9
20260509220508 68 321 0.0 3.5 0.00 0.18 0.15 55 1007.0
20260509220026 68 302 0.0 7.0 0.00 0.18 0.15 55 1007.1
20260509215507 67 303 1.7 7.0 0.00 0.18 0.15 55 1007.1
20260509215003 68 326 0.0 4.3 0.00 0.18 0.15 55 1007.0
20260509214517 68 211 0.0 4.3 0.00 0.18 0.15 55 1007.0
20260509214004 68 216 0.9 4.3 0.00 0.18 0.15 55 1007.0
20260509213508 69 192 0.0 3.5 0.00 0.18 0.15 53 1007.2
20260509213016 70 207 0.0 5.2 0.00 0.18 0.15 52 1007.2
20260509212507 70 218 0.0 5.2 0.00 0.18 0.15 52 1007.2
20260509212010 70 223 0.0 3.5 0.00 0.18 0.15 53 1007.1
20260509211521 69 319 0.0 3.5 0.00 0.18 0.15 52 1007.1
20260509211009 69 183 0.9 7.8 0.00 0.18 0.15 52 1007.2
20260509210507 69 298 0.0 7.8 0.00 0.18 0.15 54 1007.3
20260509210034 69 223 0.9 5.2 0.00 0.18 0.15 53 1007.4
20260509205508 68 183 0.9 5.2 0.00 0.18 0.15 54 1007.4
20260509205008 68 198 0.9 9.6 0.00 0.18 0.15 54 1007.6
20260509204534 68 200 0.0 9.6 0.00 0.18 0.15 55 1007.6
20260509204003 67 304 0.9 4.3 0.00 0.18 0.15 56 1007.6
20260509203508 67 202 0.0 12.2 0.00 0.18 0.15 59 1007.6
20260509203017 67 308 0.0 12.2 0.00 0.18 0.15 57 1007.7
20260509202507 67 192 1.7 12.2 0.00 0.18 0.15 58 1007.7
20260509202011 67 262 0.0 3.5 0.00 0.18 0.15 60 1007.7
20260509201519 67 333 0.9 3.5 0.00 0.18 0.15 59 1007.7
20260509201007 67 213 0.0 3.5 0.00 0.18 0.15 59 1007.9
20260509200511 67 186 0.9 3.5 0.00 0.18 0.15 60 1007.9
20260509200004 67 200 0.0 2.6 0.00 0.18 0.15 60 1007.9
20260509195506 67 211 0.0 3.5 0.00 0.18 0.15 59 1007.9
20260509195003 67 22 0.0 3.5 0.00 0.18 0.15 61 1007.9
20260509194514 67 325 0.0 6.1 0.00 0.18 0.15 60 1008.1
20260509194004 67 217 0.0 6.1 0.00 0.18 0.15 63 1008.1
20260509193507 66 215 0.0 7.0 0.00 0.18 0.15 63 1008.1
20260509193016 66 193 0.0 7.0 0.00 0.18 0.15 62 1008.2
20260509192507 65 342 0.9 7.8 0.00 0.18 0.15 63 1008.2
20260509192008 65 215 0.9 7.8 0.00 0.18 0.15 62 1008.3
20260509191526 65 225 0.9 5.2 0.00 0.18 0.15 64 1008.3
20260509191011 65 201 0.0 7.8 0.00 0.18 0.15 64 1008.6
20260509190508 65 310 0.0 7.8 0.00 0.18 0.15 63 1008.6
20260509190022 65 296 0.9 6.1 0.00 0.18 0.15 62 1008.7
20260509185507 65 188 0.0 2.6 0.00 0.18 0.15 63 1008.6
20260509185007 66 200 0.0 4.3 0.00 0.18 0.15 63 1008.7
20260509184512 66 198 0.0 4.3 0.00 0.18 0.15 65 1008.6
20260509184004 65 230 0.0 2.6 0.00 0.18 0.15 67 1008.6
20260509183505 65 233 0.0 6.1 0.00 0.18 0.15 69 1008.8
20260509183015 64 265 0.0 6.1 0.00 0.18 0.15 70 1009.0
20260509182507 63 281 0.9 6.1 0.00 0.18 0.15 71 1009.0
20260509182012 62 223 0.0 4.3 0.00 0.18 0.15 73 1009.0
20260509181520 61 213 0.0 4.3 0.00 0.18 0.15 74 1009.1
20260509181011 61 195 0.0 2.6 0.00 0.18 0.15 75 1009.1
20260509180510 61 279 0.0 2.6 0.00 0.18 0.15 75 1009.1
20260509180024 61 243 0.0 0.0 0.00 0.18 0.15 75 1009.1
20260509175508 61 212 0.0 2.6 0.00 0.18 0.15 74 1009.1
20260509175011 61 213 0.0 2.6 0.00 0.18 0.15 73 1009.1
20260509174528 61 350 0.0 2.6 0.00 0.18 0.15 1009.1
20260509174004 61 261 0.0 2.6 0.00 0.18 0.15 1009.1
20260509173503 61 226 0.0 4.3 0.00 0.18 0.15 73 1009.0
20260509173012 62 221 0.0 4.3 0.00 0.18 0.15 73 1009.0
20260509172505 61 202 0.0 3.5 0.00 0.18 0.15 74 1009.0
20260509172006 61 39 0.0 2.6 0.00 0.18 0.15 74 1008.9
20260509171518 61 302 0.0 2.6 0.00 0.18 0.15 73 1008.9
20260509171004 61 273 0.0 3.5 0.00 0.18 0.15 74 1008.9
20260509170509 61 281 0.0 3.5 0.00 0.18 0.15 76 1008.9
20260509170024 61 344 0.0 6.1 0.00 0.18 0.15 76 1008.8
20260509165509 61 340 0.0 6.1 0.00 0.18 0.15 76 1008.8
20260509165009 60 245 0.0 4.3 0.00 0.18 0.15 76 1008.8
20260509164526 60 199 0.0 3.5 0.00 0.18 0.15 79 1008.7
20260509164011 60 177 0.0 3.5 0.00 0.18 0.15 81 1008.6
20260509163511 59 163 0.0 2.6 0.00 0.18 0.15 81 1008.7
20260509163013 59 211 0.0 1.7 0.00 0.18 0.15 82 1008.8
20260509162507 59 222 0.0 1.7 0.01 0.18 0.15 82 1008.9
20260509162004 59 200 0.0 2.6 0.01 0.18 0.15 85 1008.9
20260509161516 58 147 0.0 3.5 0.01 0.18 0.15 86 1009.0
20260509161011 57 230 0.0 2.6 0.01 0.18 0.15 87 1009.0
20260509160509 57 233 0.0 0.0 0.01 0.18 0.15 87 1009.0
20260509160026 56 162 0.0 1.7 0.01 0.18 0.15 87 1009.0
20260509155509 56 228 0.0 1.7 0.01 0.18 0.15 89 1009.0
20260509155010 55 309 0.0 2.6 0.01 0.18 0.15 89 1009.0
20260509154525 55 97 0.0 2.6 0.01 0.18 0.15 88 1009.0
20260509154011 55 263 0.0 3.5 0.01 0.18 0.15 88 1009.1
20260509153509 55 214 0.0 3.5 0.01 0.18 0.15 88 1009.1
20260509153039 55 198 0.0 3.5 0.01 0.18 0.15 89 1009.0
20260509152508 55 217 0.0 3.5 0.00 0.17 0.14 89 1008.9
20260509152012 55 175 0.0 1.7 0.00 0.17 0.14 89 1008.8
20260509151514 55 179 0.0 0.0 0.00 0.17 0.14 89 1008.9
20260509151006 54 199 0.0 1.7 0.00 0.17 0.14 89 1008.9
20260509150507 54 229 0.0 1.7 0.00 0.17 0.14 89 1009.1
20260509150029 54 234 0.0 0.9 0.00 0.17 0.14 89 1009.1
20260509145505 54 257 0.0 0.0 0.00 0.17 0.14 90 1009.1
20260509145015 54 198 0.0 0.0 0.00 0.17 0.14 90 1009.1
20260509144529 54 284 0.0 2.6 0.00 0.17 0.14 90 1009.0
20260509144016 54 54 0.0 2.6 0.00 0.17 0.14 90 1009.0
20260509143510 54 282 0.0 1.7 0.00 0.17 0.14 90 1008.9
20260509143026 54 213 0.0 1.7 0.01 0.17 0.14 90 1008.9
20260509142509 54 244 0.0 1.7 0.01 0.17 0.14 91 1008.9
20260509142015 53 211 0.0 1.7 0.02 0.17 0.14 91 1009.0
20260509141530 53 258 0.0 0.0 0.02 0.17 0.14 91 1009.0
20260509141008 53 223 0.0 0.0 0.02 0.17 0.14 91 1009.1
20260509140508 53 215 0.0 0.0 0.02 0.17 0.14 91 1009.0
20260509140017 53 182 0.0 0.0 0.02 0.17 0.14 91 1009.1
20260509135504 53 219 0.0 0.0 0.03 0.17 0.14 91 1009.0
20260509135011 53 309 0.0 0.0 0.03 0.17 0.14 91 1009.0
20260509134538 53 302 0.0 0.0 0.04 0.17 0.14 91 1009.2
20260509134006 53 291 0.0 0.0 0.04 0.17 0.14 91 1009.1
20260509133512 53 213 0.0 0.0 0.04 0.17 0.14 91 1009.3
20260509133026 53 298 0.0 1.7 0.03 0.16 0.13 91 1009.2
20260509132511 53 171 0.0 1.7 0.04 0.16 0.13 91 1009.2
20260509132013 53 211 0.0 1.7 0.03 0.15 0.12 91 1009.2
20260509131528 53 196 0.0 0.0 0.04 0.15 0.12 91 1009.1
20260509131010 53 157 0.0 0.9 0.04 0.15 0.12 91 1009.3
20260509130513 52 191 0.0 1.7 0.05 0.15 0.12 91 1009.2
20260509130016 52 26 0.0 1.7 0.05 0.15 0.12 91 1009.2
20260509125507 52 200 0.0 0.0 0.04 0.14 0.11 91 1009.3
20260509125007 52 186 0.0 3.5 0.05 0.14 0.11 91 1009.3
20260509124520 52 140 0.0 3.5 0.04 0.13 0.10 91 1009.4
20260509124010 52 165 0.0 0.0 0.05 0.13 0.10 91 1009.4
20260509123509 52 206 0.0 0.0 0.06 0.13 0.10 91 1009.5
20260509123026 52 270 0.0 1.7 0.06 0.13 0.10 90 1009.4
20260509122512 52 317 0.0 1.7 0.06 0.12 0.09 90 1009.4
20260509122016 52 252 0.0 0.0 0.06 0.12 0.09 90 1009.6
20260509121541 52 88 0.0 0.0 0.06 0.11 0.08 90 1009.5
20260509121009 52 175 0.0 0.0 0.06 0.11 0.08 90 1009.7
20260509120508 52 201 0.0 0.0 0.05 0.10 0.07 90 1009.5
20260509120026 52 51 0.0 0.0 0.05 0.10 0.07 90 1009.4
20260509115508 52 87 0.0 0.0 0.05 0.10 0.07 90 1009.4
20260509115010 52 182 0.0 0.0 0.04 0.09 0.06 90 1009.4
20260509114530 52 186 0.0 0.0 0.04 0.09 0.06 89 1009.3
20260509114009 52 182 0.0 0.0 0.03 0.08 0.05 89 1009.2
20260509113510 52 146 0.0 0.0 0.02 0.07 0.04 89 1009.2
20260509113032 52 178 0.0 0.0 0.02 0.07 0.04 89 1009.2
20260509112507 52 190 0.0 0.0 0.01 0.06 0.03 89 1009.2
20260509112014 52 145 0.0 0.0 0.01 0.06 0.03 89 1009.2
20260509111528 52 185 0.0 0.0 0.00 0.05 0.02 89 1009.1
20260509111012 52 198 0.0 0.0 0.00 0.05 0.02 89 1009.1
20260509110504 52 108 0.0 0.0 0.00 0.05 0.02 89 1009.1
20260509110006 52 197 0.0 0.0 0.00 0.05 0.02 89 1009.1
20260509105509 52 234 0.0 0.0 0.00 0.05 0.02 90 1009.0
20260509105005 51 159 0.0 0.0 0.00 0.05 0.02 90 1009.0
20260509104504 51 211 0.0 0.0 0.00 0.05 0.02 90 1009.0
20260509104004 51 192 0.0 0.0 0.01 0.05 0.02 90 1008.9
20260509103504 51 48 0.0 0.0 0.01 0.05 0.02 91 1009.0
20260509103007 51 36 0.0 0.0 0.01 0.05 0.02 91 1009.0
20260509102504 51 74 0.0 0.0 0.01 0.05 0.02 91 1009.0
20260509102005 51 61 0.0 0.0 0.01 0.05 0.02 91 1009.0
20260509101505 50 61 0.0 0.0 0.01 0.05 0.02 92 1009.0
20260509101003 50 352 0.0 0.0 0.01 0.05 0.02 92 1009.1
20260509100504 50 22 0.0 0.0 0.01 0.05 0.02 92 1009.0
20260509100007 50 167 0.0 0.0 0.01 0.05 0.02 92 1009.0
20260509095504 50 275 0.0 0.0 0.01 0.05 0.02 92 1009.1
20260509095004 50 44 0.0 0.0 0.01 0.05 0.02 92 1009.1
20260509094518 50 171 0.0 0.0 0.01 0.05 0.02 92 1009.2
20260509094004 50 174 0.0 0.0 0.00 0.04 0.01 92 1009.1
20260509093504 50 174 0.0 0.0 0.00 0.04 0.01 92 1009.3
20260509093005 50 88 0.0 0.0 0.00 0.04 0.01 92 1009.4
20260509092505 50 88 0.0 0.0 0.00 0.04 0.01 91 1009.5
20260509092004 50 88 0.0 0.0 0.00 0.04 0.01 91 1009.6
20260509091507 50 76 0.0 0.0 0.00 0.04 0.01 91 1009.5
20260509091004 50 76 0.0 0.0 0.00 0.04 0.01 91 1009.5
20260509090504 50 76 0.0 0.0 0.00 0.04 0.01 91 1009.5
20260509090008 50 76 0.0 0.0 0.00 0.04 0.01 91 1009.6
20260509085504 50 76 0.0 0.0 0.00 0.04 0.01 91 1009.6
20260509085007 50 76 0.0 0.0 0.00 0.04 0.01 91 1009.6
20260509084508 50 76 0.0 0.0 0.00 0.04 0.01 91 1009.7
20260509084008 50 76 0.0 0.0 0.00 0.04 0.01 91 1009.7
20260509083505 50 76 0.0 0.0 0.00 0.04 0.01 91 1009.6
20260509083012 50 76 0.0 0.0 0.00 0.04 0.01 91 1009.5
20260509082504 50 76 0.0 0.0 0.00 0.04 0.01 91 1009.4
20260509082008 50 76 0.0 0.0 0.00 0.04 0.01 91 1009.4
20260509081518 50 76 0.0 0.0 0.00 0.04 0.01 91 1009.5
20260509081007 50 76 0.0 0.0 0.00 0.04 0.01 91 1009.5
20260509080504 50 76 0.0 0.0 0.00 0.04 0.01 91 1009.4
20260509080006 50 76 0.0 0.0 0.00 0.04 0.01 91 1009.4
20260509075504 50 76 0.0 0.0 0.00 0.04 0.01 91 1009.5
20260509075006 50 25 0.0 0.0 0.00 0.04 0.01 91 1009.6
20260509074510 50 21 0.0 0.0 0.00 0.04 0.01 91 1009.4
20260509074004 50 46 0.0 0.0 0.00 0.04 0.01 91 1009.4
20260509073504 50 46 0.0 0.0 0.00 0.04 0.01 91 1009.4
20260509073011 50 46 0.0 0.0 0.00 0.04 0.01 91 1009.4
20260509072505 50 46 0.0 0.0 0.00 0.04 0.01 91 1009.4
20260509072006 50 46 0.0 0.0 0.00 0.04 0.01 91 1009.4
20260509071511 50 46 0.0 0.0 0.00 0.04 0.01 91 1009.4
20260509071004 50 46 0.0 0.0 0.00 0.04 0.01 91 1009.4
20260509070504 50 46 0.0 0.0 0.00 0.04 0.01 90 1009.4
20260509070013 50 46 0.0 0.0 0.00 0.04 0.01 90 1009.4
20260509065503 50 46 0.0 0.0 0.00 0.04 0.01 90 1009.5
20260509065004 50 46 0.0 0.0 0.00 0.04 0.01 90 1009.6
20260509064510 50 338 0.0 0.0 0.00 0.04 0.01 91 1009.7
20260509064006 50 338 0.0 0.0 0.00 0.04 0.01 91 1009.8
20260509063503 50 338 0.0 0.0 0.00 0.04 0.01 91 1009.9
20260509063017 50 338 0.0 0.0 0.00 0.04 0.01 91 1009.9
20260509062503 50 338 0.0 0.0 0.00 0.04 0.01 91 1010.0
20260509062010 50 338 0.0 0.0 0.00 0.04 0.01 91 1010.1
20260509061512 50 338 0.0 0.0 0.00 0.04 0.01 91 1010.2
20260509061005 50 338 0.0 0.0 0.00 0.04 0.01 91 1010.2
20260509060503 50 338 0.0 0.0 0.00 0.04 0.01 90 1010.2
20260509060017 50 338 0.0 0.0 0.00 0.04 0.01 90 1010.2
20260509055503 50 338 0.0 0.0 0.00 0.04 0.01 90 1010.2
20260509055003 50 338 0.0 0.0 0.00 0.04 0.01 90 1010.3
20260509054509 50 338 0.0 0.0 0.00 0.04 0.01 90 1010.4
20260509054004 50 338 0.0 0.0 0.00 0.04 0.01 90 1010.5
20260509053504 50 338 0.0 0.0 0.00 0.04 0.01 90 1010.6
20260509053013 50 338 0.0 0.0 0.00 0.04 0.01 90 1010.7
20260509052504 50 338 0.0 0.0 0.00 0.04 0.01 90 1010.8
20260509052004 50 338 0.0 0.0 0.00 0.04 0.01 90 1010.8
20260509051511 50 338 0.0 0.0 0.00 0.04 0.01 90 1010.7
20260509051004 50 338 0.0 0.0 0.00 0.04 0.01 90 1010.7
20260509050506 50 338 0.0 0.0 0.00 0.04 0.01 90 1010.7
20260509050015 50 338 0.0 0.0 0.01 0.04 0.01 90 1010.7
20260509045505 50 338 0.0 0.0 0.01 0.04 0.01 90 1010.8
20260509045003 50 338 0.0 0.0 0.01 0.04 0.01 90 1010.7
20260509044514 50 338 0.0 0.0 0.01 0.04 0.01 90 1010.9
20260509044012 50 338 0.0 0.0 0.01 0.04 0.01 90 1010.8
20260509043506 50 338 0.0 0.0 0.01 0.04 0.01 90 1011.0
20260509043011 50 338 0.0 0.0 0.01 0.04 0.01 89 1011.1
20260509042504 51 338 0.0 0.0 0.01 0.04 0.01 89 1011.2
20260509042011 51 338 0.0 0.0 0.01 0.04 0.01 89 1011.3
20260509041514 51 338 0.0 0.0 0.01 0.04 0.01 89 1011.4
20260509041004 51 338 0.0 0.0 0.01 0.04 0.01 89 1011.5
20260509040506 51 338 0.0 0.0 0.01 0.04 0.01 89 1011.6
20260509040017 51 338 0.0 0.0 0.00 0.03 0.00 89 1011.6
20260509035506 51 338 0.0 0.0 0.00 0.03 0.03 89 1011.8
20260509035008 51 338 0.0 0.0 0.00 0.03 0.03 89 1011.8
20260509034514 51 338 0.0 0.0 0.01 0.03 0.03 88 1011.8
20260509034007 51 338 0.0 0.0 0.01 0.03 0.03 88 1011.8
20260509033506 51 338 0.0 0.0 0.01 0.03 0.03 88 1012.0
20260509033014 51 338 0.0 0.0 0.02 0.03 0.03 89 1011.9
20260509032507 51 338 0.0 0.0 0.02 0.03 0.03 88 1011.9
20260509032003 51 338 0.0 0.0 0.02 0.03 0.03 88 1011.9
20260509031516 52 338 0.0 0.0 0.02 0.03 0.03 88 1012.0
20260509031007 52 338 0.0 0.0 0.02 0.03 0.03 88 1012.2
20260509030511 52 338 0.0 0.0 0.02 0.03 0.03 88 1012.2
20260509030015 52 338 0.0 0.0 0.02 0.03 0.03 87 1012.2
20260509025506 52 338 0.0 0.0 0.02 0.03 0.03 86 1012.3
20260509025006 52 338 0.0 0.0 0.02 0.03 0.03 86 1012.3
20260509024518 52 338 0.0 0.0 0.01 0.02 0.02 86 1012.3
20260509024007 52 304 0.0 0.0 0.01 0.02 0.02 87 1012.5
20260509023508 52 74 0.0 0.0 0.01 0.02 0.02 86 1012.3
20260509023023 52 281 0.0 0.0 0.00 0.01 0.01 86 1012.6
20260509022507 52 115 0.0 0.0 0.00 0.01 0.01 86 1012.4
20260509022006 52 294 0.0 0.0 0.00 0.01 0.01 86 1012.5
20260509021518 52 23 0.0 0.0 0.00 0.01 0.01 85 1012.3
20260509021004 52 23 0.0 0.0 0.00 0.01 0.01 85 1012.2
20260509020505 52 23 0.0 0.0 0.00 0.01 0.01 84 1012.2
20260509020032 52 23 0.0 0.0 0.00 0.01 0.01 84 1012.1
20260509015507 52 23 0.0 0.0 0.00 0.01 0.01 84 1012.0
20260509015010 52 23 0.0 0.0 0.00 0.01 0.01 84 1011.7
20260509014520 52 23 0.0 0.0 0.00 0.01 0.01 84 1011.7
20260509014005 53 23 0.0 0.0 0.00 0.01 0.01 83 1011.7
20260509013506 53 23 0.0 0.0 0.00 0.01 0.01 83 1011.7
20260509013017 53 298 0.0 0.0 0.00 0.01 0.01 82 1011.8
20260509012503 53 298 0.0 0.0 0.00 0.01 0.01 82 1011.7
20260509012003 53 298 0.0 0.0 0.00 0.01 0.01 81 1011.6
20260509011512 53 298 0.0 0.0 0.00 0.01 0.01 81 1011.4
20260509011004 53 298 0.0 0.0 0.00 0.01 0.01 81 1011.4
20260509010503 53 298 0.0 0.0 0.00 0.01 0.01 81 1011.3
20260509010017 53 298 0.0 0.0 0.00 0.01 0.01 81 1011.2
20260509005507 53 298 0.0 0.0 0.00 0.01 0.01 81 1011.2
20260509005006 53 298 0.0 0.0 0.00 0.01 0.01 80 1011.2
20260509004522 53 298 0.0 0.0 0.00 0.01 0.01 81 1010.9
20260509004008 53 298 0.0 0.0 0.00 0.01 0.01 80 1011.0
20260509003509 53 298 0.0 0.0 0.00 0.01 0.01 80 1011.0
20260509003022 54 297 0.0 0.0 0.01 0.01 0.01 80 1011.0
20260509002510 54 297 0.0 0.0 0.01 0.01 0.01 79 1011.0
20260509002004 54 297 0.0 0.0 0.01 0.01 0.01 79 1011.0
20260509001510 54 297 0.0 0.0 0.01 0.01 0.01 80 1010.9
20260509001003 54 221 0.0 0.0 0.01 0.01 0.01 79 1010.6
20260509000508 54 123 0.0 0.0 0.01 0.01 0.01 78 1010.7
20260509000016 54 99 0.0 0.0 0.01 0.01 0.01 78 1011.2
20260508235506 54 99 0.0 0.0 0.01 0.01 0.01 78 1011.0
20260508235005 55 99 0.0 0.0 0.01 0.01 0.01 77 1010.9
20260508234524 55 123 0.0 0.0 0.01 0.01 0.01 77 1010.8
20260508234006 55 123 0.0 0.0 0.01 0.01 0.01 77 1010.7
20260508233507 55 338 0.0 0.0 0.01 0.01 0.01 78 1011.0
20260508233022 55 337 0.0 0.0 0.00 0.00 0.00 77 1011.1
20260508232508 55 330 0.0 0.0 0.00 0.00 0.00 76 1011.1
20260508232009 55 330 0.0 0.0 0.00 0.00 0.00 76 1011.3
20260508231521 55 330 0.0 0.0 0.00 0.00 0.00 76 1011.1
20260508231004 56 330 0.0 0.0 0.00 0.00 0.00 75 1011.1
20260508230504 56 328 0.0 0.0 0.00 0.00 0.00 76 1011.2
20260508230014 56 328 0.0 0.0 0.00 0.00 0.00 75 1011.1
20260508225506 56 340 0.0 0.0 0.00 0.00 0.00 74 1011.0
20260508225009 56 325 0.0 0.0 0.00 0.00 0.00 75 1011.0
20260508224525 56 325 0.0 0.0 0.00 0.00 0.00 76 1011.0
20260508224005 56 325 0.0 0.0 0.00 0.00 0.00 76 1011.2
20260508223506 56 309 0.0 0.0 0.00 0.00 0.00 76 1011.2
20260508223029 56 308 0.0 0.0 0.00 0.00 0.00 75 1011.3